Satellite: AO-27
Catalog number: 22825
Epoch time:      06221.51506977
Element set:    0470
Inclination:      098.2861 deg
RA of node:       200.7370 deg
Eccentricity:    0.0009356
Arg of perigee:   102.0793 deg
Mean anomaly:     258.1417 deg
Mean motion:   14.29179796 rev/day
Decay rate:       -3.9e-07 rev/day^2
Epoch rev:           67097
Checksum:              324

Satellite: IO-26
Catalog number: 22826
Epoch time:      06221.47578728
Element set:    0161
Inclination:      098.2804 deg
RA of node:       201.8889 deg
Eccentricity:    0.0009777
Arg of perigee:   098.2490 deg
Mean anomaly:     261.9799 deg
Mean motion:   14.29424038 rev/day
Decay rate:        1.2e-07 rev/day^2
Epoch rev:           67104
Checksum:              336

Satellite: PO-28
Catalog number: 22829
Epoch time:      06221.79360268
Element set:     442
Inclination:      098.2692 deg
RA of node:       203.3912 deg
Eccentricity:    0.0010856
Arg of perigee:   075.6044 deg
Mean anomaly:     284.6320 deg
Mean motion:   14.30118425 rev/day
Decay rate:       -9.8e-07 rev/day^2
Epoch rev:           67130
Checksum:              297

Satellite: TO-31
Catalog number: 25396
Epoch time:      06222.62933065
Element set:     595
Inclination:      098.4754 deg
RA of node:       281.0060 deg
Eccentricity:    0.0003355
Arg of perigee:   049.6817 deg
Mean anomaly:     310.4674 deg
Mean motion:   14.23710311 rev/day
Decay rate:        4.8e-07 rev/day^2
Epoch rev:           42009
Checksum:              285

Satellite: GO-32
Catalog number: 25397
Epoch time:      06221.69444673
Element set:    0083
Inclination:      098.4641 deg
RA of node:       276.7336 deg
Eccentricity:    0.0002086
Arg of perigee:   067.0742 deg
Mean anomaly:     293.0652 deg
Mean motion:   14.23108534 rev/day
Decay rate:       -1.5e-07 rev/day^2
Epoch rev:           41985
Checksum:              307

Satellite: UO-36
Catalog number: 25693
Epoch time:      06222.82152678
Element set:     111
Inclination:      064.5598 deg
RA of node:       074.9039 deg
Eccentricity:    0.0024397
Arg of perigee:   325.3021 deg
Mean anomaly:     034.6505 deg
Mean motion:   14.78608243 rev/day
Decay rate:      -1.39e-06 rev/day^2
Epoch rev:           39386
Checksum:              317

Satellite: MO-46
Catalog number: 26548
Epoch time:      06221.65308561
Element set:     565
Inclination:      064.5573 deg
RA of node:       066.3659 deg
Eccentricity:    0.0045854
Arg of perigee:   239.5454 deg
Mean anomaly:     120.1109 deg
Mean motion:   14.83000364 rev/day
Decay rate:       -4.0e-07 rev/day^2
Epoch rev:           31733
Checksum:              295

Satellite: NO-44
Catalog number: 26931
Epoch time:      06222.50508417
Element set:     372
Inclination:      067.0498 deg
RA of node:       227.7670 deg
Eccentricity:    0.0006355
Arg of perigee:   251.4927 deg
Mean anomaly:     108.5475 deg
Mean motion:   14.29449191 rev/day
Decay rate:       1.56e-06 rev/day^2
Epoch rev:           25369
Checksum:              318

Satellite: SO-50
Catalog number: 27607
Epoch time:      06222.68324555
Element set:      92
Inclination:      064.5598 deg
RA of node:       307.6647 deg
Eccentricity:    0.0038158
Arg of perigee:   126.3434 deg
Mean anomaly:     234.1195 deg
Mean motion:   14.71161637 rev/day
Decay rate:        8.8e-07 rev/day^2
Epoch rev:           19544
Checksum:              318

Satellite: CO-57
Catalog number: 27848
Epoch time:      06222.52398160
Element set:     789
Inclination:      098.7190 deg
RA of node:       229.3707 deg
Eccentricity:    0.0009101
Arg of perigee:   273.2380 deg
Mean anomaly:     086.7750 deg
Mean motion:   14.20277566 rev/day
Decay rate:        4.1e-07 rev/day^2
Epoch rev:           16135
Checksum:              316

Satellite: AO-51
Catalog number: 28375
Epoch time:      06221.69977046
Element set:     599
Inclination:      098.1602 deg
RA of node:       271.2855 deg
Eccentricity:    0.0085280
Arg of perigee:   045.6932 deg
Mean anomaly:     315.1209 deg
Mean motion:   14.40528598 rev/day
Decay rate:        3.0e-08 rev/day^2
Epoch rev:           11086
Checksum:              319

Satellite: XO-53
Catalog number: 28894
Epoch time:      06221.71894793
Element set:    0623
Inclination:      098.1598 deg
RA of node:       119.1756 deg
Eccentricity:    0.0018244
Arg of perigee:   009.5115 deg
Mean anomaly:     350.6433 deg
Mean motion:   14.59494659 rev/day
Decay rate:        6.8e-07 rev/day^2
Epoch rev:           04178
Checksum:              344

Satellite: CO-56
Catalog number: 28941
Epoch time:      06221.93911367
Element set:    0169
Inclination:      098.1731 deg
RA of node:       245.8593 deg
Eccentricity:    0.0272595
Arg of perigee:   283.8836 deg
Mean anomaly:     073.2214 deg
Mean motion:   15.26651393 rev/day
Decay rate:     1.0445e-04 rev/day^2
Epoch rev:           02574
Checksum:              334

/EX
SB KEPS @ AMSAT  $ORB06222.W
Orbital Elements  06222.WEATHER

HR AMSAT ORBITAL ELEMENTS FOR WEATHER SATELLITES
FROM WA5QGD FORT WORTH,TX August 10, 2006
Send SUBSCRIBE KEPS/UNSUBSCRIBE KEPS to majordomo@amsat.org only
BID: ORB06222.W
TO ALL RADIO AMATEURS BT

Satellite: NOAA-10
Catalog number: 16969
Epoch time:      06221.63237386
Element set:    0303
Inclination:      098.7590 deg
RA of node:       233.3791 deg
Eccentricity:    0.0012571
Arg of perigee:   359.5505 deg
Mean anomaly:     000.5686 deg
Mean motion:   14.27301197 rev/day
Decay rate:       1.05e-06 rev/day^2
Epoch rev:           03478
Checksum:              299

